Location: Eastview
(35.0756°N, 88.5453°W)
Time: 08:05:44
(UTC+00:00)

Cosmos 1624 Rocket - Pass Details

Date: 22 November 2019
Orbit: 756 x 785 km, 74.0° (Epoch: 10 December)

Event Time Altitude Azimuth Distance (km) Brightness Sun altitude
Rises 23:25:06 0° 348° (NNW) 3,280 7.2 -8.5°
Reaches altitude 10° 23:27:34 10° 353° (N) 2,347 6.4 -9.0°
Maximum altitude 23:32:47 53° 70° (ENE) 961 4.2 -10.0°
Drops below altitude 10° 23:37:55 10° 147° (SSE) 2,322 6.3 -11.0°
Sets 23:40:21 0° 152° (SSE) 3,242 7.1 -11.5°
